[[{"header":{"parameterUnit":"m.s-1","parameterCategory":1,"la1":30.2991,"la2":30.254,"lo1":-89.0895,"lo2":-89.0444,"dy":0.0017,"dx":0.0017,"nx":28,"ny":28,"refTime":"2023-11-01T21:00:00:Z","depth":0,"parameterNumber":2,"parameterNumberName":"U-component_of_WINDS"},"data":[0,0,0,0,0,0,0,0,0,0,0,0,0,0,0,0,0,0,0,0,0,0,0,0,0,0,0,0,0,0,0,0,0,0,0,0,0,0,0,0,0,0,0,0,0,0,0,0,0,0,0,0,0,0,0,0,0,0,-4.357,-4.3571,0,-4.3658,-4.3659,-4.366,-4.3478,-4.3472,-4.3467,-4.3461,-4.3555,-4.3563,-4.3571,0,0,0,0,0,0,0,0,0,0,0,0,0,-4.3246,-4.3253,-4.357,-4.3571,-4.3572,-4.3658,-4.3659,-4.366,-4.3479,-4.3472,-4.3465,-4.3458,-4.3552,-4.3562,-4.3571,0,0,0,0,0,0,0,0,0,0,0,0,0,-4.3366,-4.3255,-4.357,-4.3492,-4.3486,-4.3658,-4.3659,-4.3661,-4.3481,-4.3472,-4.3463,-4.3455,-4.3549,-4.3561,-4.3573,-4.3825,0,0,-4.361,-4.3615,0,0,0,0,0,0,0,0,-4.3359,-4.3378,-4.3502,-4.3498,-4.3491,-4.3548,-4.3579,-4.3716,-4.3483,-4.3483,-4.3461,-4.345,-4.356,-4.3571,-4.3607,-4.383,-4.3834,-4.3611,-4.3618,-4.3623,-4.3626,0,0,0,0,0,0,0,-4.3351,-4.3373,-4.3605,-4.3504,-4.3498,-4.3453,-4.346,-4.3604,-4.3571,-4.3482,-4.3469,-4.3482,-4.3555,-4.3596,-4.3608,-4.3835,-4.361,-4.3621,-4.3628,-4.3633,-4.4268,-4.4277,0,0,0,0,0,0,-4.3352,-4.3368,-4.3602,-4.3607,-4.3402,-4.3466,-4.3474,-4.3539,-4.3568,-4.3564,-4.349,-4.3473,-4.3579,-4.3594,-4.361,-4.3908,-4.3623,-4.3634,-4.3641,-4.4259,-4.427,-4.4281,0,0,0,0,0,0,-4.3346,-4.3375,-4.3598,-4.3484,-4.3509,-4.3481,-4.3555,-4.3545,-4.3585,-4.3574,-4.3567,-4.3537,-4.3573,-4.3593,-4.3773,-4.3908,-4.364,-4.3651,-4.4247,-4.4262,-4.4275,-4.4505,0,0,0,0,0,0,-4.3338,-4.3374,-4.347,-4.3487,-4.3516,-4.376,-4.3564,-4.3553,-4.3606,-4.3586,-4.3617,-4.3613,-4.3568,-4.3756,-4.3785,-4.392,-4.366,-4.4235,-4.4254,-4.4271,-4.4485,-4.4525,-4.456,0,0,0,0,0,-4.3327,-4.3532,-4.3475,-4.3505,-4.3635,-4.3768,-4.3784,-4.3727,-4.3618,-4.3714,-4.3706,-4.3612,-4.3888,-4.3776,-4.3807,-4.3948,-4.4226,-4.4248,-4.427,-4.4468,-4.4518,-4.4559,0,0,0,0,0,0,-4.3532,-4.3533,-4.347,-4.3687,-4.3728,-4.3737,-4.3856,-4.378,-4.3855,-4.3833,-4.3759,-4.3767,-4.3961,-4.3972,-4.3846,-4.4193,-4.4039,-4.4068,-4.418,-4.4226,-4.4263,-4.4257,-4.367,0,0,0,0,0,-4.3602,-4.371,-4.3704,-4.3896,-4.392,-4.3885,-4.3941,-4.3892,-4.3933,-4.395,-4.3955,-4.4,-4.4096,-4.4161,-4.4249,-4.4485,-4.4489,-4.4597,-4.4635,-4.4665,-4.4692,-4.4817,-4.4865,-4.4352,-4.4352,-4.4351,0,0,-4.3749,-4.3762,-4.3835,-4.3937,-4.3964,-4.4078,-4.3901,-4.4029,-4.4112,-4.397,-4.4139,-4.4145,-4.4189,-4.4398,-4.449,-4.4412,-4.4834,-4.4693,-4.4718,-4.4727,-4.4844,-4.4893,-4.4936,-4.4367,-4.4364,-4.4362,0,0,-4.4074,-4.4095,-4.4257,-4.4286,-4.4328,-4.4303,-4.4342,-4.4362,-4.436,-4.4528,-4.4423,-4.4522,-4.4689,-4.4725,-4.4765,-4.5102,-4.5018,-4.5132,-4.5329,-4.5452,-4.5492,-4.5528,-4.5649,-4.5693,-4.5158,-4.5159,-4.5159,0,-4.4252,-4.4418,-4.435,-4.4484,-4.4533,-4.4407,-4.457,-4.4602,-4.4672,-4.4708,-4.462,-4.4827,-4.4848,-4.5063,-4.5145,-4.5181,-4.5224,-4.513,-4.5492,-4.5527,-4.5559,-4.5673,-4.5719,-4.5173,-4.5171,-4.517,-4.5168,0,-4.4634,-4.4751,-4.4876,-4.4945,-4.5007,-4.5156,-4.511,-4.5181,-4.5127,-4.5112,-4.5285,-4.5305,-4.5394,-4.5441,-4.5391,-4.565,-4.56,-4.5503,-4.5347,-4.5623,-4.5729,-4.5772,-4.5192,-4.5187,-4.5183,-4.518,0,0,-4.5094,-4.5121,-4.5169,-4.5198,-4.5233,-4.5323,-4.5465,-4.5551,-4.5614,-4.5665,-4.5784,-4.5927,-4.5837,-4.5883,-4.5835,-4.5943,-4.6209,-4.5832,-4.5831,-4.5902,-4.6496,-4.657,-4.6622,-4.6152,-4.616,-4.6167,-4.6492,0,-4.5417,-4.5661,-4.5603,-4.5845,-4.5952,-4.5833,-4.5957,-4.5993,-4.5982,-4.6071,-4.6058,-4.6162,-4.6035,-4.6062,-4.6163,-4.6155,-4.6327,-4.613,-4.6263,-4.6269,-4.6257,-4.6677,-4.6756,-4.7062,-4.6533,-4.654,-4.6545,0,-4.5827,-4.5893,-4.6145,-4.6162,-4.6205,-4.6318,-4.6391,-4.6478,-4.6516,-4.65,-4.6551,-4.6481,-4.6622,-4.6463,-4.6657,-4.6525,-4.6575,-4.6579,-4.659,-4.6601,-4.6425,-4.6701,-4.7158,-4.7205,-4.661,-4.6605,-4.66,0,-4.6138,-4.6289,-4.646,-4.6488,-4.6513,-4.6595,-4.6609,-4.6637,-4.6693,-4.6757,-4.6792,-4.6873,-4.6918,-4.6983,-4.6937,-4.6825,-4.7139,-4.6976,-4.7131,-4.7132,-4.7204,-4.72,-4.7677,-4.7235,-4.7234,-4.7233,-4.7232,0,-4.6506,-4.6665,-4.66,-4.6705,-4.688,-4.6811,-4.6986,-4.6986,-4.7013,-4.7116,-4.7018,-4.7117,-4.7049,-4.7143,-4.7108,-4.7274,-4.7295,-4.7287,-4.7276,-4.7297,-4.7299,-4.733,-4.7309,-4.7245,-4.7242,-4.724,-4.7238,0,-4.6884,-4.6846,-4.7024,-4.7032,-4.7037,-4.7166,-4.7173,-4.727,-4.7251,-4.7383,-4.741,-4.738,-4.7486,-4.7445,-4.7557,-4.7533,-4.7747,-4.7707,-4.7734,-4.7724,-4.7882,-4.7868,-4.8397,-4.8463,-4.7977,-4.7982,-4.7986,0,-4.7122,-4.7241,-4.7261,-4.7323,-4.7343,-4.7444,-4.7499,-4.7436,-4.7497,-4.7549,-4.7641,-4.7737,-4.781,-4.7984,-4.7973,-4.8059,-4.8021,-4.8201,-4.8034,-4.8051,-4.8025,-4.8019,-4.8031,-4.8235,-4.8241,-4.8245,-4.8249,0,-4.7549,-4.7523,-4.7606,-4.7683,-4.7751,-4.7809,-4.7858,-4.7914,-4.7853,-4.7927,-4.8033,-4.809,-4.8203,-4.8301,-4.8376,-4.8391,-4.8312,-4.8301,-4.8342,-4.8365,-4.8376,-4.8373,-4.7827,-4.829,-4.8286,-4.8283,-4.8281,-4.8279,-4.7864,-4.7965,-4.7994,-4.809,-4.8119,-4.8167,-4.8259,-4.825,-4.8336,-4.8423,-4.838,-4.8503,-4.8537,-4.863,-4.8656,-4.8751,-4.8681,-4.874,-4.8755,-4.8771,-4.8792,-4.8359,-4.8765,-4.8763,-4.8762,-4.8761,-4.876,0,-4.8286,-4.8299,-4.8387,-4.8458,-4.8533,-4.8448,-4.8498,-4.8567,-4.8676,-4.8713,-4.8787,-4.8908,-4.9002,-4.8997,-4.9084,-4.9161,-4.9127,-4.9186,-4.9181,-4.9185,-4.8849,-4.8806,-4.9212,-4.9212,-4.9212,-4.9212,-4.9212,-4.9212,-4.8515,-4.8681,-4.8659,-4.8838,-4.8849,-4.8967,-4.9003,-4.9047,-4.9076,-4.9215,-4.9292,-4.9287,-4.9308,-4.9395,-4.9477,-4.9473,-4.951,-4.9584,-4.9567,-4.9254,-4.9209,-4.9166,-4.9125,-4.9593,-4.9593,-4.9895,-4.9898,-4.99]},{"header":{"parameterUnit":"m.s-1","parameterCategory":1,"la1":30.2991,"la2":30.254,"lo1":-89.0895,"lo2":-89.0444,"dy":0.0017,"dx":0.0017,"nx":28,"ny":28,"refTime":"2023-11-01T21:00:00:Z","depth":0,"parameterNumber":3,"parameterNumberName":"V-component_of_WINDS"},"data":[0,0,0,0,0,0,0,0,0,0,0,0,0,0,0,0,0,0,0,0,0,0,0,0,0,0,0,0,0,0,0,0,0,0,0,0,0,0,0,0,0,0,0,0,0,0,0,0,0,0,0,0,0,0,0,0,0,0,-3.7612,-3.7612,0,-3.7633,-3.7633,-3.7633,-3.7618,-3.7617,-3.7616,-3.7616,-3.7634,-3.7635,-3.7636,0,0,0,0,0,0,0,0,0,0,0,0,0,-3.7553,-3.7554,-3.7612,-3.7612,-3.7612,-3.7633,-3.7633,-3.7633,-3.7618,-3.7617,-3.7616,-3.7615,-3.7634,-3.7635,-3.7637,0,0,0,0,0,0,0,0,0,0,0,0,0,-3.7577,-3.7555,-3.7612,-3.7607,-3.7607,-3.7632,-3.7633,-3.7633,-3.7618,-3.7617,-3.7616,-3.7615,-3.7633,-3.7635,-3.7637,-3.7667,0,0,-3.7642,-3.7643,0,0,0,0,0,0,0,0,-3.7575,-3.7579,-3.7607,-3.7607,-3.7607,-3.7621,-3.7619,-3.7644,-3.7618,-3.7614,-3.7616,-3.7614,-3.7631,-3.7632,-3.7639,-3.7668,-3.7669,-3.7642,-3.7643,-3.7644,-3.7644,0,0,0,0,0,0,0,-3.7574,-3.7578,-3.762,-3.7608,-3.7608,-3.7602,-3.7604,-3.7624,-3.7627,-3.7614,-3.7613,-3.7616,-3.763,-3.7637,-3.7639,-3.7669,-3.7642,-3.7643,-3.7644,-3.7645,-3.772,-3.7721,0,0,0,0,0,0,-3.7573,-3.7577,-3.7619,-3.762,-3.7589,-3.7604,-3.7607,-3.7618,-3.7627,-3.7628,-3.7617,-3.7615,-3.7635,-3.7637,-3.7639,-3.7673,-3.7644,-3.7645,-3.7646,-3.7719,-3.772,-3.7721,0,0,0,0,0,0,-3.7572,-3.7577,-3.7618,-3.7598,-3.7603,-3.7606,-3.7619,-3.7619,-3.7625,-3.7629,-3.7629,-3.7623,-3.7634,-3.7637,-3.766,-3.7673,-3.7646,-3.7648,-3.7718,-3.7719,-3.7721,-3.7741,0,0,0,0,0,0,-3.757,-3.7577,-3.759,-3.7599,-3.7604,-3.764,-3.762,-3.762,-3.7629,-3.7627,-3.7635,-3.7636,-3.7633,-3.7657,-3.7661,-3.7675,-3.7649,-3.7717,-3.7719,-3.772,-3.7739,-3.7743,-3.7747,0,0,0,0,0,-3.7568,-3.7595,-3.7591,-3.7596,-3.7621,-3.7641,-3.7644,-3.7641,-3.763,-3.7642,-3.7644,-3.7635,-3.7671,-3.766,-3.7664,-3.7679,-3.7716,-3.7718,-3.772,-3.7738,-3.7743,-3.7747,0,0,0,0,0,0,-3.7588,-3.7596,-3.7591,-3.7622,-3.7631,-3.7638,-3.7653,-3.7647,-3.7659,-3.7656,-3.7652,-3.7654,-3.7677,-3.768,-3.7667,-3.7706,-3.7691,-3.7695,-3.7703,-3.7708,-3.7711,-3.7709,-3.765,0,0,0,0,0,-3.7596,-3.7613,-3.7619,-3.7645,-3.765,-3.7651,-3.7659,-3.7657,-3.7665,-3.7668,-3.7672,-3.7679,-3.7692,-3.77,-3.7712,-3.774,-3.774,-3.7752,-3.7755,-3.7758,-3.7761,-3.7772,-3.7777,-3.7729,-3.7729,-3.7728,0,0,-3.7613,-3.7619,-3.763,-3.7649,-3.7656,-3.7671,-3.7654,-3.7672,-3.7682,-3.7671,-3.7692,-3.7694,-3.7702,-3.7726,-3.7737,-3.773,-3.7774,-3.7761,-3.7764,-3.7764,-3.7775,-3.7779,-3.7783,-3.773,-3.773,-3.773,0,0,-3.765,-3.7658,-3.7679,-3.7685,-3.7695,-3.7695,-3.77,-3.7707,-3.7709,-3.773,-3.772,-3.7732,-3.7755,-3.7759,-3.7765,-3.78,-3.7792,-3.7804,-3.7823,-3.7834,-3.7838,-3.7841,-3.7851,-3.7855,-3.7807,-3.7807,-3.7807,0,-3.7669,-3.7693,-3.7691,-3.7708,-3.7715,-3.7705,-3.7725,-3.7731,-3.7744,-3.7748,-3.774,-3.7765,-3.777,-3.7794,-3.7802,-3.7808,-3.7811,-3.7803,-3.7838,-3.7841,-3.7844,-3.7853,-3.7857,-3.7808,-3.7808,-3.7808,-3.7808,0,-3.7714,-3.7731,-3.7747,-3.7758,-3.7767,-3.7786,-3.7784,-3.7793,-3.7789,-3.7789,-3.7808,-3.7814,-3.7825,-3.783,-3.7827,-3.7852,-3.7847,-3.7839,-3.7823,-3.785,-3.7858,-3.7862,-3.781,-3.781,-3.7809,-3.7809,0,0,-3.7766,-3.7774,-3.778,-3.7784,-3.7792,-3.7804,-3.782,-3.7831,-3.7838,-3.7846,-3.7858,-3.7876,-3.7867,-3.7873,-3.787,-3.788,-3.7904,-3.7869,-3.7869,-3.7873,-3.7929,-3.7934,-3.7938,-3.7898,-3.7899,-3.79,-3.7927,0,-3.7802,-3.7832,-3.7828,-3.7856,-3.7869,-3.7858,-3.7872,-3.7877,-3.7877,-3.7887,-3.7886,-3.7898,-3.7887,-3.789,-3.7899,-3.7899,-3.7914,-3.7897,-3.7907,-3.7908,-3.7904,-3.7943,-3.795,-3.7975,-3.7931,-3.7931,-3.7932,0,-3.7848,-3.7857,-3.7886,-3.7888,-3.7894,-3.7907,-3.7915,-3.7925,-3.793,-3.7928,-3.7934,-3.7928,-3.7942,-3.7927,-3.7945,-3.7933,-3.7937,-3.7937,-3.7937,-3.7937,-3.792,-3.7942,-3.7984,-3.7987,-3.7938,-3.7937,-3.7937,0,-3.7879,-3.7898,-3.7917,-3.7921,-3.7926,-3.7934,-3.7936,-3.794,-3.7946,-3.7953,-3.7956,-3.7964,-3.7968,-3.7974,-3.7969,-3.7959,-3.7986,-3.7972,-3.7984,-3.7984,-3.7989,-3.7989,-3.803,-3.7995,-3.7995,-3.7995,-3.7995,0,-3.7918,-3.7935,-3.7931,-3.7942,-3.796,-3.7955,-3.7972,-3.7973,-3.7976,-3.7985,-3.7977,-3.7986,-3.798,-3.7988,-3.7984,-3.7997,-3.8,-3.7998,-3.7996,-3.7998,-3.7998,-3.7999,-3.7997,-3.7996,-3.7996,-3.7995,-3.7995,0,-3.7956,-3.7954,-3.7973,-3.7975,-3.7976,-3.7988,-3.7989,-3.7999,-3.7997,-3.8009,-3.8012,-3.8009,-3.8018,-3.8013,-3.8023,-3.802,-3.8037,-3.8034,-3.8035,-3.8034,-3.8045,-3.8043,-3.8088,-3.8092,-3.8056,-3.8056,-3.8056,0,-3.798,-3.7993,-3.7995,-3.8001,-3.8004,-3.8014,-3.8019,-3.8014,-3.8019,-3.8024,-3.8032,-3.804,-3.8045,-3.8059,-3.8057,-3.8063,-3.8059,-3.8074,-3.806,-3.806,-3.8056,-3.8055,-3.8055,-3.8077,-3.8077,-3.8077,-3.8078,0,-3.8022,-3.802,-3.8028,-3.8035,-3.8041,-3.8047,-3.8051,-3.8056,-3.8051,-3.8057,-3.8066,-3.807,-3.8078,-3.8085,-3.809,-3.809,-3.8082,-3.8082,-3.8085,-3.8086,-3.8085,-3.8083,-3.8041,-3.8081,-3.8081,-3.808,-3.808,-3.808,-3.8052,-3.8061,-3.8064,-3.8072,-3.8075,-3.8079,-3.8087,-3.8085,-3.8093,-3.8099,-3.8095,-3.8104,-3.8105,-3.8111,-3.8112,-3.8118,-3.8112,-3.8117,-3.8117,-3.8118,-3.8118,-3.8085,-3.8119,-3.8119,-3.8119,-3.8119,-3.8119,0,-3.8091,-3.8092,-3.81,-3.8106,-3.8111,-3.8104,-3.8107,-3.8113,-3.8121,-3.8123,-3.8128,-3.8136,-3.8142,-3.814,-3.8145,-3.815,-3.8146,-3.8151,-3.815,-3.815,-3.8125,-3.8121,-3.8154,-3.8154,-3.8154,-3.8154,-3.8154,-3.8154,-3.8112,-3.8127,-3.8124,-3.8139,-3.8139,-3.8148,-3.815,-3.8153,-3.8154,-3.8163,-3.8168,-3.8167,-3.8166,-3.817,-3.8175,-3.8174,-3.8175,-3.8181,-3.8178,-3.8155,-3.8152,-3.8148,-3.8145,-3.8182,-3.8182,-3.8202,-3.8202,-3.8203]}]]